This demonstration page uses our WeatherBlox Daily Observations layout. Learn more.

Hourly Observations for October 15, 2015

Temp ( °F °C ) Dew Point ( °F °C ) Humidity (%) Winds ( mph kmh ) Pressure ( in mb ) Visibility ( mi km ) Precip ( " mm )
12:15 am 00:15 Clear 46 8 34 1 62 62 Calm 30.09 1019 10 16.09344 0 0
12:35 am 00:35 Clear 46 8 36 2 66 66 ENE 3 6 30.09 1019 10 16.09344 0 0
12:55 am 00:55 Clear 46 8 36 2 66 66 ENE 3 6 30.09 1019 10 16.09344 0 0
1:15 am 01:15 Clear 46 8 36 2 66 66 Calm 30.12 1020 10 16.09344 0 0
1:35 am 01:35 Clear 45 7 36 2 71 71 Calm 30.09 1019 10 16.09344 0 0
1:55 am 01:55 Clear 45 7 36 2 71 71 Calm 30.12 1020 10 16.09344 0 0
2:15 am 02:15 Clear 45 7 36 2 71 71 Calm 30.12 1020 10 16.09344 0 0
2:35 am 02:35 Clear 43 6 36 2 76 76 Calm 30.15 1021 10 16.09344 0 0
2:55 am 02:55 Clear 45 7 36 2 71 71 Calm 30.12 1020 10 16.09344 0 0
3:15 am 03:15 Clear 43 6 36 2 76 76 Calm 30.15 1021 10 16.09344 0 0
3:35 am 03:35 Clear 43 6 36 2 76 76 Calm 30.15 1021 10 16.09344 0 0
3:55 am 03:55 Clear 43 6 36 2 76 76 Calm 30.15 1021 10 16.09344 0 0
4:15 am 04:15 Clear 41 5 36 2 81 81 Calm 30.15 1021 10 16.09344 0 0
4:35 am 04:35 Clear 43 6 36 2 76 76 Calm 30.15 1021 10 16.09344 0 0
4:55 am 04:55 Clear 43 6 36 2 76 76 N 9 15 30.15 1021 10 16.09344 0 0
5:15 am 05:15 Clear 43 6 37 3 81 81 NNE 6 9 30.15 1021 10 16.09344 0 0
5:35 am 05:35 Clear 45 7 37 3 76 76 NNE 7 11 30.18 1022 10 16.09344 0 0
5:55 am 05:55 Clear 45 7 37 3 76 76 NNE 6 9 30.18 1022 10 16.09344 0 0
6:15 am 06:15 Clear 45 7 37 3 76 76 NNE 6 9 30.18 1022 10 16.09344 0 0
6:35 am 06:35 Clear 45 7 37 3 76 76 NNE 7 11 30.18 1022 10 16.09344 0 0
6:55 am 06:55 Clear 43 6 37 3 81 81 NE 5 7 30.18 1022 10 16.09344 0 0
7:15 am 07:15 Clear 45 7 37 3 76 76 Calm 30.18 1022 10 16.09344 0 0
7:35 am 07:35 Clear 45 7 37 3 76 76 Calm 30.18 1022 10 16.09344 0 0
7:55 am 07:55 Sunny 45 7 37 3 76 76 NNE 5 7 30.18 1022 10 16.09344 0 0
8:15 am 08:15 Sunny 45 7 37 3 76 76 NNE 3 6 30.18 1022 10 16.09344 0 0
8:35 am 08:35 Sunny 46 8 39 4 76 76 Calm 30.15 1021 10 16.09344 0 0
8:55 am 08:55 Sunny 48 9 39 4 71 71 Calm 30.18 1022 10 16.09344 0 0
9:15 am 09:15 Sunny 52 11 39 4 62 62 N 3 6 30.15 1021 10 16.09344 0 0
9:35 am 09:35 Sunny 54 12 39 4 58 58 NNE 8 13 30.18 1022 10 16.09344 0 0
9:55 am 09:55 Sunny 57 14 39 4 51 51 NNE 8 13 30.18 1022 10 16.09344 0 0
10:15 am 10:15 Sunny 61 16 39 4 45 45 NE 7 11 30.15 1021 10 16.09344 0 0
10:35 am 10:35 Sunny 63 17 37 3 39 39 NE 9 15 30.18 1022 10 16.09344 0 0
10:55 am 10:55 Sunny 64 18 36 2 34 34 NE 9 15 30.18 1022 10 16.09344 0 0
11:15 am 11:15 Sunny 66 19 36 2 32 32 NE 10 17 30.15 1021 10 16.09344 0 0
11:35 am 11:35 Sunny 68 20 34 1 28 28 NNE 13 20 30.15 1021 10 16.09344 0 0
11:55 am 11:55 Sunny 70 21 32 0 25 25 NNE 18 30 30.15 1021 10 16.09344 0 0
12:15 pm 12:15 Sunny 70 21 32 0 25 25 NNE 20 31 30.18 1022 10 16.09344 0 0
12:35 pm 12:35 Partly Cloudy 68 20 34 1 28 28 NNE 20 31 30.18 1022 10 16.09344 0 0
12:55 pm 12:55 Mostly Cloudy 68 20 32 0 26 26 NNE 20 31 30.18 1022 10 16.09344 0 0
1:15 pm 13:15 Cloudy 68 20 32 0 26 26 NNE 16 26 30.18 1022 10 16.09344 0 0
1:35 pm 13:35 Cloudy 68 20 32 0 26 26 NNE 18 30 30.18 1022 10 16.09344 0 0
1:55 pm 13:55 Mostly Cloudy 68 20 32 0 26 26 NNE 15 24 30.18 1022 10 16.09344 0 0
2:15 pm 14:15 Sunny 70 21 30 -1 23 23 N 17 28 30.18 1022 10 16.09344 0 0
2:35 pm 14:35 Mostly Cloudy 70 21 30 -1 23 23 N 17 28 30.18 1022 10 16.09344 0 0
2:55 pm 14:55 Cloudy 66 19 30 -1 26 26 N 16 26 30.18 1022 10 16.09344 0 0
3:15 pm 15:15 Mostly Cloudy 66 19 30 -1 26 26 NE 15 24 30.18 1022 10 16.09344 0 0
3:35 pm 15:35 Mostly Cloudy 66 19 28 -2 24 24 NNE 17 28 30.18 1022 10 16.09344 0 0
3:55 pm 15:55 Partly Cloudy 66 19 28 -2 24 24 NNE 17 28 30.18 1022 10 16.09344 0 0
4:15 pm 16:15 Sunny 66 19 27 -3 22 22 NNE 14 22 30.18 1022 10 16.09344 0 0
4:35 pm 16:35 Sunny 66 19 27 -3 22 22 NNE 14 22 30.21 1023 10 16.09344 0 0
4:55 pm 16:55 Sunny 66 19 25 -4 21 21 NNE 15 24 30.21 1023 10 16.09344 0 0
5:15 pm 17:15 Sunny 66 19 23 -5 19 19 NNE 16 26 30.21 1023 10 16.09344 0 0
5:35 pm 17:35 Sunny 64 18 23 -5 21 21 NNE 18 30 30.24 1024 10 16.09344 0 0
5:55 pm 17:55 Sunny 64 18 25 -4 22 22 NNE 17 28 30.27 1025 10 16.09344 0 0
6:15 pm 18:15 Sunny 63 17 25 -4 24 24 NNE 13 20 30.27 1025 10 16.09344 0 0
6:35 pm 18:35 Sunny 61 16 27 -3 27 27 NNE 13 20 30.27 1025 10 16.09344 0 0
6:55 pm 18:55 Sunny 59 15 27 -3 29 29 NNE 9 15 30.3 1026 10 16.09344 0 0
7:15 pm 19:15 Clear 55 13 27 -3 33 33 NNE 8 13 30.33 1027 10 16.09344 0 0
7:35 pm 19:35 Clear 52 11 27 -3 38 38 NNE 5 7 30.36 1028 10 16.09344 0 0
7:55 pm 19:55 Clear 50 10 27 -3 40 40 NNE 6 9 30.36 1028 10 16.09344 0 0
8:15 pm 20:15 Clear 48 9 27 -3 43 43 NNE 5 7 30.42 1030 10 16.09344 0 0
8:35 pm 20:35 Clear 48 9 27 -3 43 43 NNE 6 9 30.42 1030 10 16.09344 0 0
8:55 pm 20:55 Clear 48 9 28 -2 46 46 NNE 5 7 30.42 1030 10 16.09344 0 0
9:15 pm 21:15 Clear 48 9 28 -2 46 46 N 3 6 30.45 1031 10 16.09344 0 0
9:35 pm 21:35 Clear 46 8 28 -2 50 50 N 3 6 30.45 1031 10 16.09344 0 0
9:55 pm 21:55 Clear 45 7 28 -2 53 53 N 6 9 30.45 1031 10 16.09344 0 0
10:15 pm 22:15 Clear 45 7 28 -2 53 53 N 5 7 30.48 1032 10 16.09344 0 0
10:35 pm 22:35 Clear 45 7 28 -2 53 53 N 3 6 30.48 1032 10 16.09344 0 0
10:55 pm 22:55 Clear 43 6 28 -2 57 57 N 5 7 30.5 1033 10 16.09344 0 0
11:15 pm 23:15 Clear 45 7 30 -1 57 57 Calm 30.48 1032 10 16.09344 0 0
11:35 pm 23:35 Clear 43 6 30 -1 61 61 N 3 6 30.5 1033 10 16.09344 0 0
11:55 pm 23:55 Clear 41 5 30 -1 66 66 NNW 5 7 30.53 1034 10 16.09344 0 0

Powered by AerisWeather